GW5170 Weather Reports


time (UTC)temp
F
wind
direction
speed
knots
gust
knots
rain 1hr
in
rain 24hr
in
rain mn
in
humidity
%
barometer
mb
20260904141502 84 299 1.7 1.7 0.00 0.00 0.00 74 1014.5
20260904140958 84 236 1.7 2.6 0.00 0.00 0.00 74 1014.5
20260904140453 83 316 1.7 2.6 0.00 0.00 0.00 76 1014.5
20260904135952 83 260 2.6 2.6 0.00 0.00 0.00 76 1014.4
20260904135452 82 271 3.5 3.5 0.00 0.00 0.00 76 1014.4
20260904134948 82 214 4.3 5.2 0.00 0.00 0.00 77 1014.5
20260904134448 82 239 4.3 5.2 0.00 0.00 0.00 78 1014.5
20260904133943 81 301 0.9 1.7 0.00 0.00 0.00 78 1014.6
20260904133437 81 282 2.6 3.5 0.00 0.00 0.00 79 1014.4
20260904132933 80 311 2.6 3.5 0.00 0.00 0.00 81 1014.4
20260904132428 80 274 3.5 3.5 0.00 0.00 0.00 81 1014.2
20260904131927 79 259 2.6 3.5 0.00 0.00 0.00 81 1014.4
20260904131423 79 312 3.5 3.5 0.00 0.00 0.00 82 1014.3
20260904130919 79 293 1.7 2.6 0.00 0.00 0.00 82 1014.1
20260904130417 78 299 2.6 3.5 0.00 0.00 0.00 82 1014.0
20260904125912 78 278 2.6 3.5 0.00 0.00 0.00 82 1013.9
20260904125409 78 236 2.6 2.6 0.00 0.00 0.00 83 1014.0
20260904124908 78 344 1.7 2.6 0.00 0.00 0.00 83 1013.6
20260904124405 77 297 0.9 1.7 0.00 0.00 0.00 84 1013.6
20260904123900 77 269 2.6 2.6 0.00 0.00 0.00 85 1013.6
20260904123355 77 280 1.7 2.6 0.00 0.00 0.00 85 1013.7
20260904122851 77 250 1.7 1.7 0.00 0.00 0.00 85 1013.6
20260904122349 77 323 0.9 1.7 0.00 0.00 0.00 85 1013.9
20260904121844 77 302 1.7 1.7 0.00 0.00 0.00 85 1013.6
20260904121341 76 256 0.9 1.7 0.00 0.00 0.00 86 1013.5
20260904120837 76 290 0.9 1.7 0.00 0.00 0.00 86 1013.4
20260904120333 76 275 0.9 1.7 0.00 0.00 0.00 86 1013.6
20260904115827 76 325 0.9 0.9 0.00 0.00 0.00 87 1013.6
20260904115323 76 293 0.9 0.9 0.00 0.00 0.00 87 1013.5
20260904114823 76 327 0.9 0.9 0.00 0.00 0.00 87 1013.4
20260904114318 76 337 0.0 0.0 0.00 0.00 0.00 88 1013.4
20260904113813 76 334 0.0 0.9 0.00 0.00 0.00 88 1013.3
20260904113312 75 329 0.9 0.9 0.00 0.00 0.00 88 1013.2
20260904112807 75 333 0.9 0.9 0.00 0.00 0.00 89 1013.3
20260904112305 75 343 0.0 0.9 0.00 0.00 0.00 89 1013.3
20260904111758 76 349 0.0 0.0 0.00 0.00 0.00 88 1013.2
20260904111254 76 351 0.0 0.0 0.00 0.00 0.00 88 1013.1
20260904110749 76 339 0.0 0.0 0.00 0.00 0.00 89 1013.1
20260904110248 76 345 0.0 0.0 0.00 0.00 0.00 88 1013.1
20260904105743 76 324 0.0 0.9 0.00 0.00 0.00 88 1013.1
20260904105238 76 338 0.9 0.9 0.00 0.00 0.00 88 1013.2
20260904104733 76 345 0.9 0.9 0.00 0.00 0.00 88 1013.0
20260904104229 76 40 0.9 1.7 0.00 0.00 0.00 88 1013.0
20260904103726 76 318 0.9 1.7 0.00 0.00 0.00 88 1013.1
20260904103220 76 324 0.9 0.9 0.00 0.00 0.00 89 1013.2
20260904102716 76 337 0.0 0.0 0.00 0.00 0.00 90 1013.4
20260904102211 76 345 0.0 0.0 0.00 0.00 0.00 90 1013.2
20260904101708 76 345 0.0 0.0 0.00 0.00 0.00 90 1013.4
20260904101203 77 345 0.0 0.0 0.00 0.00 0.00 89 1013.3
20260904100654 77 340 0.0 0.0 0.00 0.00 0.00 87 1013.2
20260904100149 77 338 0.0 0.0 0.00 0.00 0.00 87 1013.3
20260904095649 77 337 0.0 0.0 0.00 0.00 0.00 86 1013.2
20260904095148 77 332 0.0 0.0 0.00 0.00 0.00 87 1013.2
20260904094644 77 333 0.9 0.9 0.00 0.00 0.00 87 1013.2
20260904094138 77 304 0.9 1.7 0.00 0.00 0.00 87 1013.3
20260904093636 77 340 0.0 0.0 0.00 0.00 0.00 87 1013.3
20260904093135 77 338 0.0 0.0 0.00 0.00 0.00 87 1013.3
20260904092631 77 325 0.9 0.9 0.00 0.00 0.00 86 1013.2
20260904092127 77 336 0.0 0.0 0.00 0.00 0.00 86 1013.2
20260904091623 77 340 0.0 0.0 0.00 0.00 0.00 87 1013.3
20260904091123 77 323 0.9 0.9 0.00 0.00 0.00 87 1013.3
20260904090618 77 312 1.7 1.7 0.00 0.00 0.00 86 1013.3
20260904090114 78 283 1.7 1.7 0.00 0.00 0.00 86 1013.3
20260904085609 78 314 1.7 1.7 0.00 0.00 0.00 86 1013.2
20260904085108 78 337 0.0 0.0 0.00 0.00 0.00 86 1012.9
20260904084604 78 306 0.9 1.7 0.00 0.00 0.00 86 1013.0
20260904084100 78 330 0.9 0.9 0.00 0.00 0.00 86 1012.8
20260904083556 78 335 0.9 0.9 0.00 0.00 0.00 86 1012.7
20260904083052 78 330 1.7 1.7 0.00 0.00 0.00 86 1012.7
20260904082547 78 321 0.9 1.7 0.00 0.00 0.00 86 1012.7
20260904082042 78 215 3.5 3.5 0.00 0.00 0.00 86 1012.7
20260904081537 78 299 3.5 3.5 0.00 0.00 0.00 86 1012.6
20260904081033 78 235 1.7 2.6 0.00 0.00 0.00 86 1012.7
20260904080528 78 300 1.7 1.7 0.00 0.00 0.00 87 1012.7
20260904080024 78 210 3.5 3.5 0.00 0.00 0.00 87 1012.5
20260904075520 78 279 2.6 3.5 0.00 0.00 0.00 87 1012.6
20260904075015 78 67 1.7 2.6 0.00 0.00 0.00 87 1012.7
20260904074509 78 250 2.6 2.6 0.00 0.00 0.00 87 1012.6
20260904074008 78 290 1.7 1.7 0.00 0.00 0.00 87 1012.6
20260904073504 78 246 2.6 2.6 0.00 0.00 0.00 87 1012.7
20260904073000 78 243 2.6 2.6 0.00 0.00 0.00 88 1012.7
20260904072456 78 229 3.5 3.5 0.00 0.00 0.00 88 1012.7
20260904071955 78 264 2.6 2.6 0.00 0.00 0.00 87 1012.8
20260904071452 78 224 0.9 1.7 0.00 0.00 0.00 87 1013.1
20260904070951 79 224 3.5 3.5 0.00 0.00 0.00 87 1013.0
20260904070450 79 238 2.6 2.6 0.00 0.00 0.00 87 1013.3
20260904065945 79 208 2.6 3.5 0.00 0.00 0.00 87 1013.2
20260904065441 79 196 3.5 3.5 0.00 0.00 0.00 86 1013.3
20260904064936 79 148 1.7 1.7 0.00 0.00 0.00 86 1013.2
20260904064432 79 341 1.7 1.7 0.00 0.00 0.00 86 1013.2
20260904063927 79 81 1.7 2.6 0.00 0.00 0.00 86 1013.3
20260904063424 79 218 2.6 3.5 0.00 0.00 0.00 86 1013.3
20260904062919 79 285 1.7 1.7 0.00 0.00 0.00 86 1013.5
20260904062415 79 230 1.7 2.6 0.00 0.00 0.00 86 1013.7
20260904061910 79 293 1.7 1.7 0.00 0.00 0.00 86 1013.7
20260904061407 80 341 0.9 0.9 0.00 0.00 0.00 86 1013.7
20260904060903 80 0 0.9 1.7 0.00 0.00 0.00 86 1013.5
20260904060358 80 305 1.7 1.7 0.00 0.00 0.00 86 1013.7
20260904055853 80 333 0.9 0.9 0.00 0.00 0.00 86 1013.7
20260904055348 80 337 0.0 0.9 0.00 0.00 0.00 86 1013.5
20260904054844 80 216 1.7 1.7 0.00 0.00 0.00 85 1013.7
20260904054340 80 237 1.7 1.7 0.00 0.00 0.00 86 1013.5
20260904053835 80 329 0.9 0.9 0.00 0.00 0.00 86 1013.9
20260904053334 80 0 0.9 0.9 0.00 0.00 0.00 86 1013.6
20260904052830 80 319 1.7 1.7 0.00 0.00 0.00 86 1013.5
20260904052327 80 226 3.5 3.5 0.00 0.00 0.00 86 1013.5
20260904051823 80 316 1.7 1.7 0.00 0.00 0.00 86 1013.5
20260904051318 80 27 1.7 2.6 0.00 0.00 0.00 85 1013.4
20260904050813 81 329 1.7 1.7 0.00 0.00 0.00 85 1013.3
20260904050310 81 232 2.6 2.6 0.00 0.00 0.00 85 1013.3
20260904045805 81 261 0.9 1.7 0.00 0.00 0.00 84 1013.5
20260904045307 81 311 1.7 1.7 0.00 0.00 0.00 84 1013.4
20260904044759 82 303 1.7 2.6 0.00 0.00 0.00 83 1013.4
20260904044256 82 295 1.7 1.7 0.00 0.00 0.00 83 1013.6
20260904043752 82 230 1.7 2.6 0.00 0.00 0.00 83 1013.4
20260904043249 82 341 0.9 1.7 0.00 0.00 0.00 83 1013.5
20260904042743 82 345 1.7 1.7 0.00 0.00 0.00 82 1013.4
20260904042239 82 317 0.9 1.7 0.00 0.00 0.00 82 1013.5
20260904041739 82 217 1.7 1.7 0.00 0.00 0.00 82 1013.5
20260904041235 82 230 0.9 1.7 0.00 0.00 0.00 82 1013.6
20260904040731 82 307 1.7 1.7 0.00 0.00 0.00 82 1013.6
20260904040226 83 348 0.9 0.9 0.00 0.00 0.00 81 1013.6
20260904035722 83 352 0.0 0.0 0.00 0.00 0.00 81 1013.6
20260904035217 83 355 1.7 1.7 0.00 0.00 0.00 81 1013.6
20260904034716 83 305 1.7 2.6 0.00 0.00 0.00 81 1013.6
20260904034212 83 15 0.9 0.9 0.00 0.00 0.00 81 1013.7
20260904033708 83 342 0.9 1.7 0.00 0.00 0.00 81 1013.6
20260904033205 83 325 0.9 0.9 0.00 0.00 0.00 81 1013.6
20260904032700 83 31 0.9 0.9 0.00 0.00 0.00 80 1013.6
20260904032200 83 344 0.9 0.9 0.00 0.00 0.00 80 1013.4
20260904031700 83 158 0.9 1.7 0.00 0.00 0.00 80 1013.3
20260904031155 84 37 1.7 1.7 0.00 0.00 0.00 79 1013.3
20260904030651 84 197 2.6 2.6 0.00 0.00 0.00 79 1013.2
20260904030146 84 224 2.6 3.5 0.00 0.00 0.00 79 1013.4
20260904025642 84 29 2.6 2.6 0.00 0.00 0.00 79 1013.3
20260904025136 84 79 1.7 1.7 0.00 0.00 0.00 79 1013.1
20260904024627 84 2 0.9 0.9 0.00 0.00 0.00 79 1013.3
20260904024122 84 45 0.9 0.9 0.00 0.00 0.00 79 1013.2
20260904023618 83 46 1.7 2.6 0.00 0.00 0.00 80 1013.0
20260904023113 84 164 3.5 3.5 0.00 0.00 0.00 79 1013.0
20260904022608 84 115 2.6 3.5 0.00 0.00 0.00 79 1012.9
20260904022105 84 270 2.6 2.6 0.00 0.00 0.00 79 1013.2
20260904021600 84 10 0.9 1.7 0.00 0.00 0.00 78 1013.1
20260904021055 84 9 0.9 1.7 0.00 0.00 0.00 78 1013.2
20260904020550 84 267 1.7 1.7 0.00 0.00 0.00 78 1013.1
20260904020045 84 336 1.7 2.6 0.00 0.00 0.00 78 1013.0
20260904015539 84 297 0.9 1.7 0.00 0.00 0.00 78 1013.0
20260904015038 84 331 1.7 1.7 0.00 0.00 0.00 78 1013.1
20260904014532 84 297 0.9 1.7 0.00 0.00 0.00 78 1013.1
20260904014028 85 8 1.7 1.7 0.00 0.00 0.00 78 1013.0
20260904013524 85 352 0.9 0.9 0.00 0.00 0.00 78 1012.8
20260904013021 85 354 1.7 1.7 0.00 0.00 0.00 77 1012.7
20260904012520 85 108 1.7 2.6 0.00 0.00 0.00 77 1012.8
20260904012014 86 348 0.9 0.9 0.00 0.00 0.00 76 1012.7
20260904011509 86 353 0.9 0.9 0.00 0.00 0.00 76 1012.6
20260904011004 86 184 2.6 2.6 0.00 0.00 0.00 76 1012.7
20260904010501 86 7 0.9 1.7 0.00 0.00 0.00 75 1012.7
20260904010000 86 35 0.9 1.7 0.00 0.00 0.00 75 1012.5
20260904005456 87 350 0.9 0.9 0.00 0.00 0.00 74 1012.4
20260904004951 87 151 1.7 2.6 0.00 0.00 0.00 74 1012.5
20260904004448 87 19 0.9 0.9 0.00 0.00 0.00 73 1012.5
20260904003947 88 241 1.7 2.6 0.00 0.00 0.00 72 1012.4
20260904003443 88 0 0.9 1.7 0.00 0.00 0.00 71 1012.2
20260904002938 89 345 0.9 2.6 0.00 0.00 0.00 70 1012.2
20260904002435 89 42 2.6 2.6 0.00 0.00 0.00 70 1012.3
20260904001933 89 269 1.7 1.7 0.00 0.00 0.00 69 1012.1
20260904001429 89 336 1.7 2.6 0.00 0.00 0.00 69 1012.2
20260904000924 89 170 3.5 3.5 0.00 0.00 0.00 69 1012.1
20260904000425 90 119 1.7 2.6 0.00 0.00 0.00 69 1012.1
20260903235919 90 315 2.6 3.5 0.00 0.00 0.00 68 1012.0
20260903235415 91 256 3.5 3.5 0.00 0.00 0.00 67 1012.0
20260903234914 91 229 3.5 3.5 0.00 0.00 0.00 67 1012.0
20260903234410 91 227 5.2 6.1 0.00 0.00 0.00 66 1012.0
20260903233906 91 3 0.9 1.7 0.00 0.00 0.00 66 1012.0
20260903233402 91 163 3.5 3.5 0.00 0.00 0.00 66 1011.9
20260903232901 91 156 1.7 1.7 0.00 0.00 0.00 66 1011.6
20260903232356 91 211 3.5 3.5 0.00 0.00 0.00 66 1011.8
20260903231855 91 280 2.6 2.6 0.00 0.00 0.00 65 1011.8
20260903231351 91 316 1.7 1.7 0.00 0.00 0.00 65 1012.0
20260903230846 91 305 1.7 1.7 0.00 0.00 0.00 65 1011.9
20260903230341 91 338 2.6 3.5 0.00 0.00 0.00 65 1011.7
20260903225837 91 195 3.5 3.5 0.00 0.00 0.00 64 1011.7
20260903225328 92 235 3.5 5.2 0.00 0.00 0.00 63 1011.7
20260903224824 93 216 7.8 7.8 0.00 0.00 0.00 61 1011.6
20260903224320 93 232 2.6 3.5 0.00 0.00 0.00 59 1011.6
20260903223816 93 225 6.1 7.0 0.00 0.00 0.00 60 1011.5
20260903223314 94 242 7.0 8.7 0.00 0.00 0.00 59 1011.4
20260903222809 93 201 6.1 7.8 0.00 0.00 0.00 59 1011.3
20260903222308 93 208 9.6 13.0 0.00 0.00 0.00 59 1011.1
20260903221802 94 230 7.8 9.6 0.00 0.00 0.00 58 1011.3
20260903221301 94 190 5.2 9.6 0.00 0.00 0.00 58 1011.3
20260903220800 95 255 4.3 5.2 0.00 0.00 0.00 58 1011.5
20260903220255 94 189 5.2 7.8 0.00 0.00 0.00 58 1012.0
20260903215753 94 207 8.7 9.6 0.00 0.00 0.00 58 1012.0
20260903215249 94 337 4.3 6.1 0.00 0.00 0.00 56 1012.0
20260903214747 94 241 4.3 5.2 0.00 0.00 0.00 57 1012.5
20260903214239 95 270 3.5 5.2 0.00 0.00 0.00 56 1012.5
20260903213738 96 298 2.6 3.5 0.00 0.00 0.00 55 1012.6
20260903213233 95 244 3.5 5.2 0.00 0.00 0.00 56 1012.8
20260903212724 95 219 6.1 8.7 0.00 0.00 0.00 55 1012.8
20260903212220 95 251 3.5 3.5 0.00 0.00 0.00 55 1012.9
20260903211718 95 244 5.2 7.0 0.00 0.00 0.00 56 1013.0
20260903211215 95 268 7.0 7.8 0.00 0.00 0.00 55 1013.1
20260903210711 95 270 3.5 5.2 0.00 0.00 0.00 55 1013.1
20260903210207 95 296 5.2 6.1 0.00 0.00 0.00 55 1013.2
20260903205706 95 236 4.3 5.2 0.00 0.00 0.00 55 1013.0
20260903205205 96 275 4.3 6.1 0.00 0.00 0.00 51 1013.1
20260903204701 95 214 4.3 5.2 0.00 0.00 0.00 52 1013.2
20260903204157 95 232 3.5 5.2 0.00 0.00 0.00 54 1013.3
20260903203652 96 255 2.6 2.6 0.00 0.00 0.00 55 1013.1
20260903203148 96 237 6.1 7.8 0.00 0.00 0.00 54 1013.1
20260903202642 95 267 6.1 7.8 0.00 0.00 0.00 56 1013.3
20260903202138 95 247 2.6 2.6 0.00 0.00 0.00 55 1013.3
20260903201632 95 280 5.2 7.0 0.00 0.00 0.00 55 1013.4
20260903201131 95 210 5.2 7.0 0.00 0.00 0.00 54 1013.2
20260903200626 95 234 3.5 3.5 0.00 0.00 0.00 52 1013.2
20260903200121 95 227 5.2 6.1 0.00 0.00 0.00 52 1013.2
20260903195617 96 227 1.7 3.5 0.00 0.00 0.00 53 1013.2
20260903195113 94 157 1.7 2.6 0.00 0.00 0.00 55 1013.2
20260903194609 96 262 1.7 3.5 0.00 0.00 0.00 54 1013.3
20260903194108 95 208 4.3 6.1 0.00 0.00 0.00 55 1013.4
20260903193605 95 270 4.3 6.1 0.00 0.00 0.00 54 1013.5
20260903193100 95 272 4.3 5.2 0.00 0.00 0.00 54 1013.6
20260903192557 95 332 0.9 0.9 0.00 0.00 0.00 54 1013.7
20260903192057 95 217 4.3 6.1 0.00 0.00 0.00 54 1013.6
20260903191553 94 204 3.5 3.5 0.00 0.00 0.00 55 1013.9
20260903191048 94 190 4.3 7.0 0.00 0.00 0.00 56 1013.7
20260903190547 94 295 0.9 1.7 0.00 0.00 0.00 55 1013.9
20260903190047 94 331 1.7 1.7 0.00 0.00 0.00 57 1013.6
20260903185542 94 219 7.0 8.7 0.00 0.00 0.00 58 1013.7
20260903185038 93 193 5.2 6.1 0.00 0.00 0.00 58 1013.7
20260903184534 91 232 1.7 1.7 0.00 0.00 0.00 63 1013.7
20260903184029 91 98 2.6 2.6 0.00 0.00 0.00 65 1013.9
20260903183523 91 320 1.7 2.6 0.00 0.00 0.00 63 1013.9
20260903183018 91 37 3.5 3.5 0.00 0.00 0.00 64 1014.0
20260903182516 91 95 1.7 2.6 0.00 0.00 0.00 63 1014.0
20260903182013 91 218 2.6 2.6 0.00 0.00 0.00 63 1014.2
20260903181511 89 178 2.6 2.6 0.00 0.00 0.00 64 1014.4
20260903181011 90 38 0.9 0.9 0.00 0.00 0.00 65 1014.5
20260903180507 89 189 4.3 5.2 0.00 0.00 0.00 64 1014.4
20260903180006 89 200 3.5 3.5 0.00 0.00 0.00 67 1014.3
20260903175505 90 261 1.7 2.6 0.00 0.00 0.00 66 1014.4
20260903175005 90 286 2.6 3.5 0.00 0.00 0.00 67 1014.7
20260903174500 90 172 2.6 2.6 0.00 0.00 0.00 67 1014.5
20260903174000 89 314 1.7 1.7 0.00 0.00 0.00 67 1014.7
20260903173455 88 337 2.6 2.6 0.00 0.00 0.00 67 1014.6
20260903172951 88 291 1.7 1.7 0.00 0.00 0.00 66 1014.7
20260903172446 89 234 3.5 3.5 0.00 0.00 0.00 65 1014.6
20260903171941 89 133 1.7 1.7 0.00 0.00 0.00 65 1014.5
20260903171436 90 23 1.7 1.7 0.00 0.00 0.00 65 1014.8
20260903170936 89 99 3.5 3.5 0.00 0.00 0.00 67 1014.7
20260903170431 89 344 1.7 1.7 0.00 0.00 0.00 65 1014.5
20260903165930 91 136 1.7 2.6 0.00 0.00 0.00 62 1014.6
20260903165424 89 352 1.7 1.7 0.00 0.00 0.00 65 1014.7
20260903164924 89 334 0.0 0.9 0.00 0.00 0.00 63 1014.6
20260903164420 91 25 0.0 0.9 0.00 0.00 0.00 62 1014.7
20260903163919 88 273 1.7 1.7 0.00 0.00 0.00 65 1014.6
20260903163415 87 332 0.9 0.9 0.00 0.00 0.00 68 1014.5
20260903162911 87 288 2.6 3.5 0.00 0.00 0.00 68 1014.7
20260903162408 87 75 2.6 2.6 0.00 0.00 0.00 68 1014.8
20260903161903 86 62 1.7 1.7 0.00 0.00 0.00 70 1014.7
20260903161358 86 72 2.6 2.6 0.00 0.00 0.00 70 1014.6
20260903160854 86 63 3.5 3.5 0.00 0.00 0.00 70 1014.9
20260903160352 87 23 1.7 1.7 0.00 0.00 0.00 69 1014.7
20260903155851 88 29 1.7 1.7 0.00 0.00 0.00 67 1014.8
20260903155347 89 72 1.7 1.7 0.00 0.00 0.00 66 1014.9
20260903154843 87 1 0.9 0.9 0.00 0.00 0.00 67 1014.9
20260903154339 85 41 2.6 2.6 0.00 0.00 0.00 69 1015.0
20260903153839 85 21 1.7 2.6 0.00 0.00 0.00 69 1015.0
20260903153335 85 68 1.7 1.7 0.00 0.00 0.00 71 1014.8
20260903152831 85 32 1.7 3.5 0.00 0.00 0.00 69 1015.0
20260903152327 86 353 0.9 0.9 0.00 0.00 0.00 70 1014.8
20260903151821 84 37 1.7 2.6 0.00 0.00 0.00 71 1015.0
20260903151318 84 37 1.7 1.7 0.00 0.00 0.00 71 1015.0
20260903150817 83 355 0.9 1.7 0.00 0.00 0.00 74 1014.9
20260903150317 83 355 0.9 0.9 0.00 0.00 0.00 74 1014.9
20260903145812 83 68 1.7 2.6 0.00 0.00 0.00 74 1015.0
20260903145307 83 34 3.5 3.5 0.00 0.00 0.00 75 1015.1
20260903144806 82 335 0.9 1.7 0.00 0.00 0.00 76 1015.0
20260903144302 83 349 3.5 3.5 0.00 0.00 0.00 75 1015.1
20260903143757 83 346 0.9 1.7 0.00 0.00 0.00 74 1015.0
20260903143253 82 338 2.6 3.5 0.00 0.00 0.00 76 1015.0
20260903142749 83 67 3.5 3.5 0.00 0.00 0.00 75 1014.8
20260903142245 83 8 1.7 2.6 0.00 0.00 0.00 75 1015.1
20260903141741 83 345 1.7 2.6 0.00 0.00 0.00 75 1015.0